CW1053 Weather Reports


time (UTC)temp
C
wind
direction
speed
KPH
gust
KPH
rain 1hr
cm
rain 24hr
cm
rain mn
cm
humidity
%
barometer
mb
20260504214527 22 214 1.6 8.0 0.00 0.00 0.00 31 1009.7
20260504214013 22 264 4.8 8.0 0.00 0.00 0.00 30 1009.8
20260504213506 22 262 1.6 6.4 0.00 0.00 0.00 31 1009.8
20260504213022 22 262 3.2 6.4 0.00 0.00 0.00 31 1009.9
20260504212503 22 230 1.6 6.4 0.00 0.00 0.00 31 1010.0
20260504212006 22 262 1.6 6.4 0.00 0.00 0.00 30 1009.9
20260504211529 22 246 3.2 8.0 0.00 0.00 0.00 30 1009.9
20260504211007 22 253 3.2 8.0 0.00 0.00 0.00 30 1009.9
20260504210508 22 240 3.2 6.4 0.00 0.00 0.00 31 1009.9
20260504210020 22 250 1.6 6.4 0.00 0.00 0.00 31 1009.9
20260504205508 22 219 3.2 4.8 0.00 0.00 0.00 31 1009.9
20260504205007 22 235 1.6 6.4 0.00 0.00 0.00 31 1009.9
20260504204523 22 264 3.2 6.4 0.00 0.00 0.00 32 1010.0
20260504204007 22 222 3.2 8.0 0.00 0.00 0.00 30 1010.0
20260504203512 22 247 3.2 8.0 0.00 0.00 0.00 30 1010.0
20260504203027 22 253 3.2 4.8 0.00 0.00 0.00 30 1009.8
20260504202504 22 266 1.6 9.7 0.00 0.00 0.00 31 1009.9
20260504202003 22 235 1.6 9.7 0.00 0.00 0.00 31 1010.0
20260504201517 22 237 3.2 12.9 0.00 0.00 0.00 30 1010.1
20260504201006 22 266 3.2 12.9 0.00 0.00 0.00 30 1010.1
20260504200507 22 222 3.2 6.4 0.00 0.00 0.00 31 1010.0
20260504200023 22 238 3.2 8.0 0.00 0.00 0.00 32 1010.0
20260504195506 22 222 3.2 8.0 0.00 0.00 0.00 31 1010.0
20260504195008 22 258 1.6 8.0 0.00 0.00 0.00 33 1010.1
20260504194524 22 231 1.6 8.0 0.00 0.00 0.00 32 1010.2
20260504194009 22 275 1.6 6.4 0.00 0.00 0.00 32 1010.3
20260504193509 21 273 3.2 6.4 0.00 0.00 0.00 32 1010.3
20260504193026 22 250 1.6 8.0 0.00 0.00 0.00 31 1010.3
20260504192513 21 235 3.2 9.7 0.00 0.00 0.00 31 1010.3
20260504192009 21 269 1.6 9.7 0.00 0.00 0.00 32 1010.5
20260504191515 21 253 3.2 6.4 0.00 0.00 0.00 34 1010.5
20260504191008 21 256 1.6 8.0 0.00 0.00 0.00 34 1010.6
20260504190507 21 242 3.2 8.0 0.00 0.00 0.00 34 1010.7
20260504190020 21 254 1.6 11.3 0.00 0.00 0.00 33 1010.8
20260504185507 21 268 3.2 11.3 0.00 0.00 0.00 34 1010.8
20260504185006 21 254 3.2 6.4 0.00 0.00 0.00 35 1010.9
20260504184536 21 254 1.6 9.7 0.00 0.00 0.00 35 1011.0
20260504184008 21 257 3.2 9.7 0.00 0.00 0.00 35 1011.2
20260504183510 21 261 3.2 6.4 0.00 0.00 0.00 35 1011.1
20260504183023 21 214 3.2 9.7 0.00 0.00 0.00 35 1011.1
20260504182507 21 221 1.6 9.7 0.00 0.00 0.00 35 1011.3
20260504182011 20 269 1.6 6.4 0.00 0.00 0.00 35 1011.2
20260504181526 20 276 3.2 8.0 0.00 0.00 0.00 36 1011.4
20260504181011 20 233 3.2 8.0 0.00 0.00 0.00 34 1011.4
20260504180512 20 268 3.2 8.0 0.00 0.00 0.00 35 1011.5
20260504180018 20 227 1.6 8.0 0.00 0.00 0.00 36 1011.6
20260504175507 20 251 1.6 9.7 0.00 0.00 0.00 37 1011.5
20260504175009 20 242 3.2 9.7 0.00 0.00 0.00 36 1011.6
20260504174520 20 250 1.6 8.0 0.00 0.00 0.00 35 1011.5
20260504174007 20 264 1.6 8.0 0.00 0.00 0.00 36 1011.6
20260504173507 20 250 3.2 8.0 0.00 0.00 0.00 35 1011.6
20260504173022 20 256 1.6 6.4 0.00 0.00 0.00 37 1011.6
20260504172508 20 245 3.2 9.7 0.00 0.00 0.00 37 1011.7
20260504172008 20 258 3.2 9.7 0.00 0.00 0.00 35 1011.8
20260504171526 20 263 1.6 6.4 0.00 0.00 0.00 38 1011.8
20260504171011 20 276 1.6 8.0 0.00 0.00 0.00 36 1011.9
20260504170508 20 267 4.8 8.0 0.00 0.00 0.00 35 1011.9
20260504151010 18 267 3.2 6.4 0.00 0.00 0.00 39 1013.7
20260504150511 18 261 1.6 6.4 0.00 0.00 0.00 41 1013.7
20260504141011 17 251 1.6 4.8 0.00 0.00 0.00 44 1013.7
20260504140509 17 253 3.2 4.8 0.00 0.00 0.00 42 1013.8
20260504130509 16 256 1.6 8.0 0.00 0.00 0.00 52 1014.4
20260504110507 11 264 0.0 4.8 0.00 0.00 0.00 65 1015.0
20260504100507 8 256 0.0 3.2 0.00 0.00 0.00 67 1015.0
20260504081527 8 259 0.0 0.0 0.00 0.00 0.00 63 1014.6
20260504081010 8 259 0.0 0.0 0.00 0.00 0.00 63 1014.6
20260504080512 8 259 0.0 0.0 0.00 0.00 0.00 62 1014.7
20260504050507 6 289 0.0 0.0 0.00 0.00 0.00 69 1014.2
20260504050009 6 289 0.0 0.0 0.00 0.00 0.00 69 1014.2
20260504045504 6 289 0.0 0.0 0.00 0.00 0.00 69 1014.2
20260504045003 6 289 0.0 0.0 0.00 0.00 0.00 70 1014.1
20260504044515 6 289 0.0 0.0 0.00 0.00 0.00 71 1014.0
20260504044006 6 289 0.0 0.0 0.00 0.00 0.00 70 1014.0
20260504043506 6 289 0.0 0.0 0.00 0.00 0.00 70 1014.0
20260504043019 6 289 0.0 0.0 0.00 0.00 0.00 69 1013.9
20260504042508 6 289 0.0 0.0 0.00 0.00 0.00 69 1013.9
20260504042010 6 289 0.0 0.0 0.00 0.00 0.00 69 1013.8
20260504041532 6 289 0.0 0.0 0.00 0.00 0.00 70 1013.7
20260504041009 6 289 0.0 0.0 0.00 0.00 0.00 70 1013.8
20260504040509 6 289 0.0 0.0 0.00 0.00 0.00 69 1013.7
20260504040023 6 289 0.0 0.0 0.00 0.00 0.00 68 1013.7
20260504035508 6 289 0.0 0.0 0.00 0.00 0.00 68 1013.7
20260504035009 6 289 0.0 0.0 0.00 0.00 0.00 68 1013.7
20260504034512 6 289 0.0 0.0 0.00 0.00 0.00 67 1013.6
20260504034007 6 289 0.0 0.0 0.00 0.00 0.00 67 1013.6
20260504033504 6 289 0.0 0.0 0.00 0.00 0.00 66 1013.6
20260504033016 6 289 0.0 0.0 0.00 0.00 0.00 66 1013.7
20260504032507 7 289 0.0 0.0 0.00 0.00 0.00 66 1013.6
20260504032007 7 289 0.0 0.0 0.00 0.00 0.00 65 1013.6
20260504031518 7 289 0.0 0.0 0.00 0.00 0.00 65 1013.5
20260504031008 7 289 0.0 0.0 0.00 0.00 0.00 64 1013.5
20260504030507 7 289 0.0 0.0 0.00 0.00 0.00 63 1013.5
20260504030024 7 289 0.0 0.0 0.00 0.00 0.00 62 1013.4
20260504025510 8 262 0.0 0.0 0.00 0.00 0.00 60 1013.4
20260504025008 8 263 0.0 0.0 0.00 0.00 0.00 58 1013.4
20260504024526 8 262 0.0 0.0 0.00 0.00 0.00 55 1013.4
20260504024012 8 260 0.0 0.0 0.00 0.00 0.00 53 1013.5
20260504023504 8 260 0.0 0.0 0.00 0.00 0.00 55 1013.5
20260504023012 8 260 0.0 0.0 0.00 0.00 0.00 54 1013.5
20260504022506 8 260 0.0 0.0 0.00 0.00 0.00 55 1013.5
20260504022007 8 260 0.0 0.0 0.00 0.00 0.00 55 1013.5
20260504021519 8 260 0.0 0.0 0.00 0.00 0.00 53 1013.4
20260504021003 8 260 0.0 0.0 0.00 0.00 0.00 53 1013.5
20260504020507 8 260 0.0 0.0 0.00 0.00 0.00 53 1013.5
20260504020022 9 260 0.0 0.0 0.00 0.00 0.00 52 1013.5
20260504015508 9 260 0.0 0.0 0.00 0.00 0.00 51 1013.4
20260504015010 9 260 0.0 0.0 0.00 0.00 0.00 52 1013.4
20260504014528 9 260 0.0 0.0 0.00 0.00 0.00 50 1013.3
20260504014009 8 260 0.0 0.0 0.00 0.00 0.00 50 1013.3
20260504013508 8 260 0.0 0.0 0.00 0.00 0.00 53 1013.3
20260504013026 8 260 0.0 0.0 0.00 0.00 0.00 51 1013.2
20260504012511 9 260 0.0 0.0 0.00 0.00 0.00 51 1013.1
20260504012004 9 260 0.0 0.0 0.00 0.00 0.00 51 1013.1
20260504011514 9 260 0.0 0.0 0.00 0.00 0.00 51 1013.1
20260504011008 10 260 0.0 0.0 0.00 0.00 0.00 49 1013.0
20260504010509 10 260 0.0 0.0 0.00 0.00 0.00 48 1012.9
20260504010020 10 260 0.0 0.0 0.00 0.00 0.00 47 1012.9
20260504005507 11 260 0.0 0.0 0.00 0.00 0.00 45 1012.8
20260504005005 11 260 0.0 0.0 0.00 0.00 0.00 42 1012.7
20260504004525 11 260 0.0 0.0 0.00 0.00 0.00 42 1012.7
20260504004006 12 260 0.0 0.0 0.00 0.00 0.00 39 1012.6
20260504003511 12 260 0.0 0.0 0.00 0.00 0.00 39 1012.5
20260504003026 12 260 0.0 0.0 0.00 0.00 0.00 38 1012.4
20260504002509 12 260 0.0 0.0 0.00 0.00 0.00 36 1012.2
20260504002012 13 260 0.0 0.0 0.00 0.00 0.00 35 1012.1
20260504001531 13 260 0.0 0.0 0.00 0.00 0.00 35 1011.9
20260504001006 13 260 0.0 0.0 0.00 0.00 0.00 35 1011.9
20260504000507 13 259 0.0 0.0 0.00 0.00 0.00 34 1011.8
20260504000019 13 260 0.0 0.0 0.00 0.00 0.00 34 1011.8
20260503235510 13 260 0.0 0.0 0.00 0.00 0.00 33 1011.8
20260503235006 13 260 0.0 0.0 0.00 0.00 0.00 32 1011.7
20260503234526 14 259 0.0 3.2 0.00 0.00 0.00 32 1011.6
20260503234006 14 259 0.0 3.2 0.00 0.00 0.00 32 1011.6
20260503233508 14 271 0.0 1.6 0.00 0.00 0.00 31 1011.6
20260503233035 14 271 0.0 3.2 0.00 0.00 0.00 30 1011.5
20260503232509 14 271 0.0 4.8 0.00 0.00 0.00 31 1011.5
20260503232009 14 273 0.0 4.8 0.00 0.00 0.00 30 1011.5
20260503231525 15 265 0.0 4.8 0.00 0.00 0.00 31 1011.5
20260503231007 15 245 1.6 8.0 0.00 0.00 0.00 30 1011.5
20260503230508 15 252 1.6 8.0 0.00 0.00 0.00 29 1011.5
20260503230026 15 249 3.2 6.4 0.00 0.00 0.00 29 1011.4
20260503225506 15 267 1.6 6.4 0.00 0.00 0.00 29 1011.4
20260503225006 15 221 3.2 6.4 0.00 0.00 0.00 30 1011.4
20260503224520 15 262 1.6 6.4 0.00 0.00 0.00 29 1011.5
20260503224006 15 273 1.6 6.4 0.00 0.00 0.00 30 1011.5
20260503223503 15 287 1.6 6.4 0.00 0.00 0.00 29 1011.4
20260503223003 15 273 1.6 6.4 0.00 0.00 0.00 30 1011.4
20260503222503 15 237 1.6 4.8 0.00 0.00 0.00 30 1011.3
20260503222003 15 275 1.6 9.7 0.00 0.00 0.00 31 1011.4
20260503221512 15 257 1.6 9.7 0.00 0.00 0.00 30 1011.3
20260503221008 15 238 1.6 6.4 0.00 0.00 0.00 29 1011.4
20260503220502 15 231 1.6 4.8 0.00 0.00 0.00 29 1011.4
20260503220013 15 286 1.6 8.0 0.00 0.00 0.00 31 1011.5
20260503215507 15 266 3.2 8.0 0.00 0.00 0.00 28 1011.4
20260503215002 15 258 3.2 8.0 0.00 0.00 0.00 29 1011.5